Regional Weather Roundup
Issued by NWS San Diego, CA

Home | Current Version | Previous Version | Text Only | Print | Product List | Glossary On
Versions: 1 2 3 4 5 6 7 8 9 10 11 12 13 14 15 16 17 18 19 20 21 22 23 24 25 26 27 28 29 30 31 32 33 34 35 36 37 38 39 40 41 42 43 44 45 46 47 48 49 50
645
ASUS46 KSGX 182211
RWRSGX

SAN DIEGO HOURLY WEATHER ROUNDUP
NATIONAL WEATHER SERVICE SAN DIEGO CA
200 PM PST SAT NOV 18 2017

NOTE: "FAIR" INDICATES FEW OR NO CLOUDS BELOW 12,000 FEET WITH NO
SIGNIFICANT WEATHER AND/OR OBSTRUCTIONS TO VISIBILITY.

CAZ042-043-060-061-PZZ750-775-182300-

GREATER SAN DIEGO AREA

CITY           SKY/WX    TMP DP  RH WIND       PRES   REMARKS
SAN DIEGO AP   MOSUNNY   69  58  67 NW15G22   30.06S
NATIONAL CITY    N/A     71  61  71 W6        30.07S
CHULA VISTA      N/A     74  60  62 W14       29.96S
IMPERIAL BEACH SUNNY     69  58  67 NW15      30.05S
BROWN FIELD    SUNNY     74  56  53 W13       30.04S
MIRAMAR MCAS   MOSUNNY   74  59  59 NW14      30.05S
MONTGOMERY FLD SUNNY     74  55  51 NW16      30.05S

$$

NORTH SAN DIEGO COUNTY

CITY           SKY/WX    TMP DP  RH WIND       PRES   REMARKS
CAMP PENDLETON SUNNY     75  53  46 SW7       30.04F
OCEANSIDE AP   SUNNY     71  59  65 W12       30.04F
OCEANSIDE HBR    N/A     65  61  85 W9        30.08F
VISTA            N/A     71  57  61 W3        30.03S
CARLSBAD       SUNNY     67  58  72 NW8       30.05S
DEL MAR          N/A     69  63  81 CALM      30.08F
LA JOLLA SCRIP   N/A     64  62  92 NW5       30.06S
FALLBROOK        N/A     78  55  44 SW2       30.04F
ESCONDIDO        N/A     74  57  54 W7        30.05S
SAN MARCOS       N/A     73  58  59 NW12      30.08R
POWAY            N/A     79  53  39 W1        30.05

$$

EAST SAN DIEGO COUNTY

CITY           SKY/WX    TMP DP  RH WIND       PRES   REMARKS
RAMONA         SUNNY     79  32  18 W8        30.06F
LA MESA          N/A     77  51  38 W3        29.97F
JAMUL            N/A     78  47  33 CALM      30.04F
DESCANSO N       N/A     68  34  28 E3        30.04F
MT. LAGUNA OBS   N/A     51  29  42 NE15      30.05F
CAMPO            N/A     68  29  23 E21G26    30.08F

$$

ORANGE COUNTY AND THE LOS ANGELES BASIN

CITY           SKY/WX    TMP DP  RH WIND       PRES   REMARKS
JOHN WAYNE AP  MOSUNNY   73  57  57 W7        30.05F
LAGUNA BEACH     N/A     69  63  81 CALM      30.01F
LAKE FOREST FR   N/A     77  49  37 W2        29.95F
HUNTINGTON BCH   N/A     70  62  75 W9        30.07F
LOS ALAMITOS   PTSUNNY   78  55  44 SW6       30.04F
FULLERTON      MOSUNNY   80  44  27 SW7       30.04F
LONG BEACH     MOSUNNY   79  45  29 NW5       30.05F
L.A. AP        MOSUNNY   68  57  68 W10       30.07F
L.A. DOWNTOWN  SUNNY     77  46  33 CALM      30.05F

$$

THE INLAND EMPIRE

CITY           SKY/WX    TMP DP  RH WIND       PRES   REMARKS
CORONA         SUNNY     80  28  15 E7        30.07F
CHINO          MOSUNNY   80  25  13 CALM      30.07F
ONTARIO        MOSUNNY   78  33  19 W7        30.07F
SAN BERNARDINO MOSUNNY   79  21  11 NW13      30.09S
RIVERSIDE AP   SUNNY     78  26  14 NE8       30.07F
MORENO VALLEY    N/A     76  37  24 S5        28.20F
MARCH ARB      SUNNY     75  23  14 NW15G22   30.08F
HORSETHIEF CYN   N/A     76  25  15 NE3       30.08F
PERRIS           N/A     75  37  24 SW2         N/A
HEMET EAST       N/A     75  34  22 SW5       30.12F
FRENCH VALLEY  FAIR      77  37  24 NW3       30.07F
TEMECULA         N/A     77  46  32 S2        30.06F

$$

SAN BERNARDINO AND RIVERSIDE COUNTY MOUNTAINS

CITY           SKY/WX    TMP DP  RH WIND       PRES   REMARKS
BIG BEAR AP    SUNNY     55   1  11 E8        30.25S
ANGELUS OAKS     N/A     57  31  36 CALM      30.11R

$$

SOUTHERN DESERT INCLUDING THE COACHELLA VALLEY

CITY           SKY/WX    TMP DP  RH WIND       PRES   REMARKS
PALM SPRINGS   SUNNY     79  21  11 VRB6      30.11F
THOUSAND PALMS   N/A     78  30  17 NW2       30.07F
PALM DESERT      N/A     82  27  13 CALM      31.86
THERMAL        SUNNY     80  22  11 W7        30.07F
BLYTHE         SUNNY     74  13   9 N15       30.12F
IMPERIAL AP    SUNNY     79  20  11 N5        30.08F
EL CENTRO NAS  MOSUNNY   78  22  12 NE8       30.11F
YUMA AZ        SUNNY     76  21  12 N18G25    30.07F
MEXICALI       SUNNY     77  16  10 NW8       30.09F

$$

UPPER DESERT

CITY           SKY/WX    TMP DP  RH WIND       PRES   REMARKS
VICTORVILLE AP SUNNY     63  10  13 NE14      30.22S
HESPERIA         N/A     66  20  17 SE5       30.33S
PALMDALE       SUNNY     65  13  13 NE8G18    30.21F
LANCASTER      SUNNY     64  13  13 NE10      30.22F
EDWARDS AFB    MOSUNNY   63  10  12 NE7       30.19F
DAGGETT        SUNNY     64  10  12 E9        30.22F
29 PALMS N     SUNNY     67   6   9 N5        30.25F
NEEDLES        SUNNY     70  13  11 NE22      30.17

$$

REGIONAL REPORTS

CITY           SKY/WX    TMP DP  RH WIND       PRES   REMARKS
SANTA BARBARA  SUNNY     68  49  50 W9        30.10F
SANDBERG       SUNNY     57  15  19 E15G24    30.23F
LAS VEGAS NV   SUNNY     60  10  14 NE8       30.26F
PHOENIX AZ     SUNNY     77  31  18 CALM      30.05F
TIJUANA        MOSUNNY   77  54  44 W10       30.05F
ENSENADA NW      N/A     71  32  24 CALM      29.96S

$$

OFFSHORE ISLANDS

CITY           SKY/WX    TMP DP  RH WIND       PRES   REMARKS
CATALINA ARPT  SUNNY     68  51  54 N6        30.11F
SAN NICOLAS IS MOSUNNY   65  55  70 CALM      30.11F

$$

MARINE AND OFFSHORE BUOY REPORTS

STATION/POSITION SKY/WX   TEMP    WIND        PRES    VSBY  SWELL
                          AIR SEA DIR/SP/G                  HT/PER/DIR
                          (F)     (DEG/KT/KT) (MB)    (MI)  (FT/S/D)
TANNER BANKS               62 63  160/  8/ 10 1020.0          5/320/10
S CLEMENTE BASIN           64 66  330/ 10/ 12 1019.2          3/270/11
SAN NICOLAS IS.               63                N/A           3/300/12
SO. S. ROSA ISLA           60 61  310/ 14/ 16 1019.5F         3/290/11
W. S. BARBARA CH           58 59  320/ 14/ 16 1019.6F         3/300/11
M. S. BARBARA CH           60 60  270/ 10/ 12 1020.2F         2/250/ 9
S. MONICA BASIN               67  290/  8/ 10 1018.8F         2/210/13
S PEDRO CHANNEL               64                N/A           2/190/13
CMP PENDLETON NS              63                N/A           2/210/13
OCEANSIDE OFFSHR              64                N/A           2/180/13
TORREY PINES OTR              66                N/A           2/190/13
POINT LOMA SOUTH              65                N/A           2/210/13

$$





USA.gov is the U.S. government's official web portal to all federal, state and local government web resources and services.